Chongqing, China

4:24 AM CST on November 18, 2019 (GMT +0800)
Jiangbei

Weather History for ZUCK - September, 2019

Change the Weather History Date:

Wednesday, September 25, 2019

  Actual Average Record
Temperature  
Mean Temperature 69 °F -  
Max Temperature 74 °F - - ()
Min Temperature 64 °F - - ()
Cooling Degree Days 4    
Growing Degree Days 19 (Base 50)    
Moisture  
Dew Point 63 °F    
Average Humidity 82    
Maximum Humidity 100    
Minimum Humidity 54    
Precipitation  
Precipitation 0.00 in - - ()
Sea Level Pressure  
Sea Level Pressure 30.25 in    
Wind  
Wind Speed 3 mph ()    
Max Wind Speed 4 mph    
Max Gust Speed -    
Visibility 4.8 miles    
Events Fog , Rain    
T = Trace of Precipitation, MM = Missing Value Source: Averaged Metar Reports

Daily Weather History Graph

Daily Weather History Graph

Search for Another Location

Airport or City:

Astronomy

Sep. 25, 2019 Rise Set
Actual Time 6:43 AM CST 6:47 PM CST
Civil Twilight 6:19 AM CST 7:10 PM CST
Nautical Twilight 5:51 AM CST 7:38 PM CST
Astronomical Twilight 5:23 AM CST 8:06 PM CST
Moon 2:24 AM CST (9/25) 4:31 PM CST (9/25)
Length of Visible Light 12h 51m
Length of Day
12h 04m
Waning Crescent, 18% of the Moon is Illuminated
Sep 25
Waning Crescent
Sep 29
New
Oct 6
First Quarter
Oct 14
Full
Oct 21
Last Quarter

Hourly Weather History & Observations

Time (CST) Temp. Dew Point Humidity Pressure Visibility Wind Dir Wind Speed Gust Speed Precip Events Conditions
12:00 AM 66.2 °F 64.4 °F 94% 30.30 in 3.1 mi Variable 2.2 mph - N/A Fog , Rain Light Rain
1:00 AM 66.2 °F 66.2 °F 100% 30.30 in 3.7 mi West 4.5 mph - N/A Rain Light Rain
2:00 AM 66 °F 63 °F 86% 30.25 in - WSW 2.2 mph - - Rain Light Rain
2:00 AM 66.2 °F 64.4 °F 94% 30.30 in 3.7 mi WSW 4.5 mph - N/A Rain Light Rain
3:00 AM 66.2 °F 64.4 °F 94% 30.27 in 3.7 mi West 4.5 mph - N/A   Overcast
4:00 AM 66.2 °F 64.4 °F 94% 30.27 in 3.7 mi SW 4.5 mph - N/A   Scattered Clouds
5:00 AM 64.4 °F 64.4 °F 100% 30.27 in 4.3 mi WSW 4.5 mph - N/A   Scattered Clouds
6:00 AM 64.4 °F 64.4 °F 100% 30.27 in 5.0 mi Variable 4.5 mph - N/A   Scattered Clouds
7:00 AM 66.2 °F 64.4 °F 94% 30.27 in 3.7 mi West 4.5 mph - N/A   Scattered Clouds
8:00 AM 67 °F 62 °F 81% 30.26 in 4 mi North 2.2 mph - -   Mist
8:00 AM 66.2 °F 62.6 °F 88% 30.30 in 5.0 mi Variable 4.5 mph - N/A   Scattered Clouds
9:00 AM 66.2 °F 62.6 °F 88% 30.33 in 5.0 mi West 4.5 mph - N/A Fog Patches of Fog
10:00 AM 68.0 °F 62.6 °F 83% 30.33 in 6.2 mi WSW 4.5 mph - N/A   Partly Cloudy
11:00 AM 70 °F 62 °F 69% 30.27 in 6 mi NNW 4.5 mph - -   Overcast
11:00 AM 68.0 °F 62.6 °F 83% 30.33 in 6.2 mi WSW 4.5 mph - N/A   Partly Cloudy
12:00 PM 68.0 °F 62.6 °F 83% 30.30 in - Variable 2.2 mph - N/A   Clear
1:00 PM 69.8 °F 62.6 °F 78% 30.27 in - Variable 2.2 mph - N/A   Clear
2:00 PM 73 °F 63 °F 62% 30.21 in 5 mi Calm Calm - -   Overcast
2:00 PM 71.6 °F 60.8 °F 69% 30.24 in 6.2 mi Calm Calm - N/A   Partly Cloudy
3:00 PM 71.6 °F 62.6 °F 73% 30.21 in 6.2 mi Variable 2.2 mph - N/A   Mostly Cloudy
4:00 PM 73.4 °F 62.6 °F 69% 30.21 in 6.2 mi Variable 4.5 mph - N/A   Partly Cloudy
5:00 PM 74 °F 61 °F 54% 30.16 in 4 mi East 2.2 mph - -   Mist
5:00 PM 71.6 °F 62.6 °F 73% 30.21 in 6.2 mi Variable 2.2 mph - N/A   Partly Cloudy
7:00 PM 68.0 °F 60.8 °F 78% 30.21 in - South 4.5 mph - N/A   Clear
8:00 PM 71 °F 62 °F 65% 30.18 in - WNW 2.2 mph - -   Mist
8:00 PM 69.8 °F 60.8 °F 73% 30.21 in - Calm Calm - N/A   Clear
9:00 PM 68.0 °F 60.8 °F 78% 30.24 in - Calm Calm - N/A   Clear
10:00 PM 68.0 °F 62.6 °F 83% 30.24 in - Calm Calm - N/A   Clear
11:00 PM 67 °F 62 °F 80% 30.20 in 3 mi NW 4.5 mph - -   Mist
11:00 PM 66.2 °F 62.6 °F 88% 30.24 in - North 4.5 mph - N/A   Clear